SCP
7 7 6 6 6 6 7 8 8 7 7 7 6 6 5 4 3 2 2 2 2 2 2 2 1 1 1 0 0 0 0 0 0 0 0 0 0 0 0 0 0 0 0
9 9 8 8 8 8 9 10 9 8 8 7 7 6 4 4 3 2 2 2 2 2 2 2 1 1 0 0 0 0 0 0 0 0 0 0 0 0 0 0 0 0 0
10 10 10 10 10 10 11 12 12 11 10 9 7 6 4 3 3 2 1 1 1 1 1 1 1 0 0 0 0 0 0 0 0 0 0 0 0 0 0 0 0 0 0
9 10 10 11 12 13 14 15 14 12 11 10 9 7 5 3 2 1 0 0 0 0 0 0 0 0 0 0 0 0 0 0 0 0 0 0 0 0 0 0 0 0 0
10 11 12 13 14 15 17 17 16 16 15 12 10 7 5 2 1 1 0 0 0 0 0 0 0 0 0 0 0 0 0 0 0 0 0 0 0 0 0 0 0 0 0
11 12 13 13 14 15 14 14 17 19 17 14 11 7 4 2 1 0 0 0 0 0 0 0 0 0 0 0 0 0 0 0 0 0 0 0 0 0 0 0 0 0 0
10 10 11 11 11 11 12 13 16 17 15 11 8 5 2 1 1 0 0 0 0 0 0 0 0 0 0 0 0 0 0 0 0 0 0 0 0 0 0 0 0 0 0
5 6 6 6 7 9 11 12 13 12 9 6 4 2 1 1 0 0 0 0 0 0 0 0 0 0 0 0 0 0 0 0 0 0 0 0 0 0 0 0 0 0 0
2 2 3 3 4 6 7 8 8 6 4 2 1 1 1 0 0 0 0 0 0 0 0 0 0 0 0 0 0 0 0 0 0 0 0 0 0 0 0 0 0 0 0
1 1 1 1 2 2 2 3 3 2 1 1 0 0 0 0 0 0 0 0 0 0 0 0 0 0 0 0 0 0 0 0 0 0 0 0 0 0 0 0 0 0 0
0 0 0 0 0 0 0 0 0 0 0 0 0 0 0 0 0 0 0 0 0 0 0 0 0 0 0 0 0 0 0 0 0 0 0 0 0 0 0 0 0 0 0
0 0 0 0 0 0 0 0 0 0 0 0 0 0 0 0 0 0 0 0 0 0 0 0 0 0 0 0 0 0 0 0 0 0 0 0 0 0 0 0 0 0 0
0 0 0 0 0 0 0 0 0 0 0 0 0 0 0 0 0 0 0 0 0 0 0 0 0 0 0 0 0 0 0 0 0 0 0 0 0 0 0 0 0 0 0
0 0 0 0 0 0 0 0 0 0 0 0 0 0 0 0 0 0 0 0 0 0 0 0 0 0 0 0 0 0 0 0 0 0 0 0 0 0 0 0 0 0 0
0 0 0 0 0 0 0 0 0 0 0 0 0 0 0 0 0 0 0 0 0 0 0 0 0 0 0 0 0 0 0 0 0 0 0 0 0 0 0 0 0 0 0
0 0 0 0 0 0 0 0 0 0 0 0 0 0 0 0 0 0 0 0 0 0 0 0 0 0 0 0 0 0 0 0 0 0 0 0 0 0 0 0 0 0 0
0 0 0 0 0 0 0 0 0 0 0 0 0 0 0 0 0 0 0 0 0 0 0 0 0 0 0 0 0 0 0 0 0 0 0 0 0 0 0 0 0 0 0
0 0 0 0 0 0 0 0 0 0 0 0 0 0 0 0 0 0 0 0 0 0 0 0 0 0 0 0 0 0 0 0 0 0 0 0 0 0 0 0 0 0 0
0 0 0 0 0 0 0 0 0 0 0 0 0 0 0 0 0 0 0 0 0 0 0 0 0 0 0 0 0 0 0 0 0 0 0 0 0 0 0 0 0 0 0
0 0 0 0 0 0 0 0 0 0 0 0 0 0 0 0 0 0 0 0 0 0 0 0 0 0 0 0 0 0 0 0 0 0 0 0 0 0 0 0 0 0 0
0 0 0 0 0 0 0 0 0 0 0 0 0 0 0 0 0 0 0 0 0 0 0 0 0 0 0 0 0 0 0 0 0 0 0 0 0 0 0 0 0 0 0
0 0 0 0 0 0 0 0 0 0 0 0 0 0 0 0 0 0 0 0 0 0 0 0 0 0 0 0 0 0 0 0 0 0 0 0 0 0 0 0 0 0 0
0 0 0 0 0 0 0 0 0 0 0 0 0 0 0 0 0 0 0 0 0 0 0 0 0 0 0 0 0 0 0 0 0 0 0 0 0 0 0 0 0 0 0
0 0 0 0 0 0 0 0 0 0 0 0 0 0 0 0 0 0 0 0 0 0 0 0 0 0 0 0 0 0 0 0 0 0 0 0 0 0 0 0 0 0 0
0 0 0 0 0 0 0 0 0 0 0 0 0 0 0 0 0 0 0 0 0 0 0 0 0 0 0 0 0 0 0 0 0 0 0 0 0 0 0 0 0 0 0
0 0 0 0 0 0 0 0 0 0 0 0 0 0 0 0 0 0 0 0 0 0 0 0 0 0 0 0 0 0 0 0 0 0 0 0 0 0 0 0 0 0 0
Wind_Speed
9 8 7 7 8 8 9 11 12 13 11 9 8 6 5 5 5 5 6 6 6 6 5 4 4 4 4 4 4 3 4 3 2 2 2 2 2 1 1 2 2 1 2
7 7 7 6 8 11 11 10 11 12 10 6 5 5 6 5 5 5 7 7 7 6 5 5 4 4 4 5 4 3 3 2 2 2 2 1 3 3 2 2 1 1 1
9 8 7 8 8 8 9 8 8 9 8 9 8 8 7 5 4 5 5 6 7 7 6 6 5 5 4 4 3 3 4 2 2 2 2 2 2 1 3 2 2 2 2
7 6 6 5 5 6 6 7 8 9 10 11 11 11 8 6 5 5 6 7 7 7 7 7 6 6 5 5 4 4 3 3 2 2 2 2 2 2 1 3 3 3 3
9 8 7 6 5 5 7 8 10 9 9 10 12 11 9 8 7 8 9 7 7 7 7 7 6 6 5 6 6 5 5 3 3 2 2 3 3 3 2 1 3 3 2
11 10 10 9 9 9 8 9 11 10 9 9 9 11 13 12 11 9 9 7 5 6 7 7 7 6 6 6 6 6 7 5 5 4 4 3 3 2 2 1 1 2 3
10 11 12 12 11 11 11 11 13 12 11 11 11 11 12 12 12 10 9 7 6 5 6 6 6 6 6 6 6 6 5 5 5 5 4 4 3 2 2 2 1 2 3
11 11 12 12 12 13 13 13 14 14 13 13 12 11 11 9 8 9 8 7 6 5 6 7 7 7 6 6 6 5 5 5 5 6 5 4 3 3 3 2 1 2 3
10 11 12 12 13 14 14 13 15 14 13 14 13 12 12 11 10 10 9 7 6 6 7 7 8 7 7 6 6 5 5 5 5 5 5 4 3 3 3 2 2 2 1
10 11 11 12 12 13 13 14 15 14 13 12 11 11 11 11 10 9 9 7 7 7 7 7 7 7 7 7 6 5 5 6 5 4 5 4 3 3 3 2 2 2 3
9 10 10 11 12 12 12 13 13 14 13 13 12 12 11 11 10 9 8 7 7 7 7 7 7 7 7 7 7 6 6 7 5 5 5 4 2 2 2 2 1 1 1
9 9 10 11 11 12 12 13 12 13 12 12 13 12 11 10 10 9 8 7 7 7 7 7 8 8 8 8 8 7 6 5 5 4 3 3 2 2 2 1 2 2 2
9 8 9 10 11 11 12 12 12 12 11 12 12 12 10 10 9 9 8 8 7 7 8 9 9 9 8 8 7 6 6 5 4 3 3 3 3 2 2 2 2 2 3
9 9 9 9 10 11 11 12 12 11 11 11 12 11 10 9 9 8 8 8 7 8 9 9 8 8 7 7 6 5 5 5 5 4 4 4 3 3 4 3 4 3 3
10 10 11 10 10 11 11 11 11 10 10 11 11 9 8 8 8 8 7 7 8 8 8 8 7 6 5 5 5 4 5 5 5 5 5 5 6 6 3 3 3 3 3
11 11 11 11 11 10 11 10 10 9 9 10 9 8 8 7 7 7 6 7 7 6 6 6 5 5 4 5 6 5 4 4 5 5 6 6 6 7 7 7 7 7 6
11 11 10 9 9 8 8 9 8 8 8 8 8 7 7 6 6 6 6 6 5 5 5 4 4 3 2 2 4 7 4 4 5 5 5 5 6 7 4 6 10 11 14
10 9 8 7 7 8 7 7 8 7 7 7 6 6 6 6 5 5 5 4 3 3 2 2 2 2 2 1 2 6 5 4 5 5 5 6 7 6 5 5 7 8 9
8 7 7 7 7 7 7 7 7 6 7 6 6 5 5 5 5 5 3 2 2 2 1 1 2 2 3 4 2 3 3 4 6 6 7 7 6 8 9 6 8 10 11
7 6 6 7 6 5 5 7 6 6 5 5 4 4 4 5 4 3 2 1 1 0 1 1 2 3 3 4 5 2 2 4 5 6 7 9 9 11 12 7 7 10 11
7 6 6 5 4 5 6 6 5 4 3 4 4 4 4 4 3 2 1 1 1 1 2 2 2 2 2 2 4 5 2 3 5 5 5 6 12 15 16 12 7 11 11
6 5 5 5 4 5 6 6 4 3 3 4 4 3 3 2 3 2 1 1 2 2 3 3 3 3 3 3 5 7 7 6 4 5 5 7 14 16 16 11 10 13 10
5 5 6 5 4 4 5 5 2 2 3 3 2 2 2 1 1 1 1 1 2 2 2 2 2 2 2 4 7 8 10 10 5 5 11 14 16 14 10 11 13 10 5
5 5 5 5 3 3 3 3 2 2 3 2 1 1 1 1 1 0 1 2 2 2 2 2 1 2 3 3 4 5 5 8 7 6 10 14 12 9 9 9 7 5 4
4 4 5 4 3 2 2 2 2 3 2 1 1 2 2 2 1 0 0 1 1 3 3 2 1 1 3 4 7 6 5 5 6 7 5 4 6 7 7 7 6 5 4
4 4 4 4 3 3 2 2 2 3 3 1 1 2 2 1 1 2 2 4 2 4 5 4 2 2 4 8 9 10 11 11 10 5 3 5 5 6 6 7 7 5 5
Wind_Direction
175 169 175 185 176 176 185 187 173 168 161 159 152 137 126 114 101 93 94 96 97 100 102 104 98 100 107 112 108 97 83 59 41 70 28 3 21 48 98 110 113 138 159
136 151 163 178 189 187 189 188 176 169 165 156 133 113 110 96 87 87 76 75 84 86 94 95 92 91 100 98 94 102 102 66 38 98 96 6 351 358 16 54 88 64 59
143 152 155 170 177 178 180 182 172 161 145 125 115 109 98 91 86 85 79 70 77 77 82 87 89 83 89 96 88 92 112 119 53 55 137 153 213 314 347 21 43 36 33
106 114 117 135 152 161 157 151 143 140 140 139 138 138 136 131 116 105 94 80 75 79 80 83 84 82 81 85 79 74 92 118 113 57 48 92 130 130 344 345 7 26 36
72 80 85 88 90 113 132 135 128 127 132 137 139 133 126 120 120 113 104 92 78 74 79 84 86 84 82 82 77 73 71 76 91 90 77 67 58 65 117 335 342 355 1
61 62 63 67 68 75 91 108 110 106 108 111 120 126 128 126 121 114 108 98 89 79 79 83 83 83 83 80 77 76 76 75 74 67 62 75 78 59 83 108 319 327 320
57 56 56 58 62 69 78 88 96 93 92 96 98 106 115 117 118 118 114 109 99 90 86 88 86 83 81 80 78 75 71 70 74 72 67 65 63 63 89 95 13 325 313
57 56 55 56 61 63 68 79 86 86 86 89 91 93 98 100 102 104 107 102 100 98 93 87 83 78 76 75 72 70 66 67 69 72 72 69 59 60 69 96 93 14 332
64 62 61 60 62 64 66 75 83 84 84 88 90 91 92 97 101 100 96 96 99 100 91 86 81 75 71 70 70 67 60 63 62 61 61 60 47 51 62 77 106 121 333
70 68 67 67 67 69 72 74 79 83 84 86 89 93 92 94 97 97 97 95 92 90 89 85 81 75 68 66 65 60 56 61 54 60 58 50 38 38 39 53 75 123 160
76 76 76 75 75 74 75 77 79 81 83 85 87 88 89 92 93 94 94 94 90 87 85 84 79 73 65 60 62 61 62 63 52 48 55 44 43 30 16 27 30 33 163
83 82 83 83 81 80 79 80 80 82 84 88 90 89 89 89 89 87 85 84 81 79 79 77 74 70 64 58 60 59 53 55 48 38 38 15 13 8 350 345 326 299 269
92 88 86 88 88 87 87 87 85 86 87 88 88 86 83 81 80 77 74 73 73 70 71 76 77 74 68 62 56 52 42 32 21 9 2 340 350 327 304 299 294 286 292
97 94 90 89 89 90 90 91 88 87 89 87 86 83 79 78 77 75 71 71 73 78 81 85 84 79 72 63 51 44 32 13 358 348 340 329 310 284 280 281 280 278 291
91 89 88 87 89 90 89 89 89 87 90 89 86 84 83 80 78 75 71 70 73 85 93 95 89 83 75 64 56 32 18 359 345 337 329 319 319 322 303 287 275 276 283
96 92 89 89 89 92 94 92 91 90 90 89 88 85 83 79 78 78 75 75 77 83 89 95 98 89 85 74 55 36 7 344 334 324 318 312 311 321 323 319 320 312 301
106 100 94 90 89 87 91 93 92 90 90 91 91 87 85 82 80 86 81 80 81 89 96 107 114 119 138 92 38 18 14 345 333 324 317 319 317 320 303 307 314 310 304
104 99 96 91 87 88 87 88 89 89 89 88 87 85 86 86 83 82 81 77 80 95 112 136 155 173 214 205 11 6 9 349 337 329 320 314 309 306 298 296 302 299 295
102 98 97 98 96 95 99 98 93 93 93 92 92 93 96 98 92 85 77 71 82 92 148 194 193 206 241 244 272 354 351 334 326 323 325 323 314 306 309 303 298 301 300
95 97 94 93 95 94 100 100 99 98 100 103 104 103 103 107 105 104 92 75 102 170 249 258 242 227 239 248 257 300 333 321 318 317 315 317 313 310 310 298 288 294 297
96 96 94 92 97 100 99 99 100 107 115 109 100 95 104 119 125 115 93 72 35 7 339 321 311 298 271 270 287 310 311 297 305 308 309 306 309 311 308 303 277 272 283
102 101 98 92 88 94 98 101 103 113 106 101 101 104 124 139 138 125 40 30 42 31 6 4 354 354 6 24 354 348 339 334 302 294 296 299 307 310 309 307 296 299 300
106 101 103 94 81 91 106 112 122 109 97 101 115 127 146 164 152 154 148 47 58 68 41 36 19 359 5 359 358 351 342 339 327 295 303 308 309 312 311 310 314 317 312
110 108 105 102 94 97 109 130 135 116 112 128 177 204 213 250 264 229 171 141 126 106 78 50 21 341 328 331 335 331 326 327 324 314 312 311 310 315 313 315 320 317 307
114 116 121 124 127 124 122 145 147 129 129 161 239 260 254 241 237 55 72 164 184 174 156 168 191 314 317 304 313 314 310 307 300 309 310 320 331 336 334 331 326 323 330
120 118 123 128 136 136 154 185 168 144 141 165 261 266 267 251 178 138 62 46 99 126 140 158 171 257 276 306 320 323 320 318 318 318 318 323 326 325 324 326 326 323 325